| time (UTC) | temp F | wind direction | speed MPH | gust MPH | rain 1hr in | rain 24hr in | rain mn in | humidity % | barometer mb |
| 20260510093020 | 68 | 59 | 0.0 | 0.0 | 0.00 | 0.00 | 0.00 | 93 | 1012.9 |
| 20260510091606 | 68 | 59 | 0.0 | 0.0 | 0.00 | 0.00 | 0.00 | 93 | 1013.0 |
| 20260510090010 | 68 | 59 | 0.0 | 0.0 | 0.00 | 0.00 | 0.00 | 93 | 1012.8 |
| 20260510084608 | 68 | 59 | 0.0 | 0.0 | 0.00 | 0.00 | 0.00 | 93 | 1012.4 |
| 20260510083103 | 68 | 59 | 0.0 | 0.0 | 0.00 | 0.00 | 0.00 | 93 | 1011.9 |
| 20260510080006 | 68 | 59 | 0.0 | 0.0 | 0.00 | 0.43 | 0.00 | 93 | 1011.1 |
| 20260510074506 | 68 | 59 | 0.0 | 0.0 | 0.00 | 0.43 | 0.00 | 93 | 1011.3 |
| 20260510073018 | 68 | 59 | 0.0 | 0.0 | 0.00 | 0.43 | 0.00 | 93 | 1011.2 |
| 20260510071517 | 68 | 59 | 0.0 | 0.0 | 0.00 | 0.43 | 0.00 | 93 | 1011.4 |
| 20260510070028 | 67 | 59 | 0.0 | 0.0 | 0.00 | 0.43 | 0.00 | 93 | 1011.7 |
| 20260510063017 | 67 | 50 | 0.0 | 0.0 | 0.00 | 1.20 | 0.00 | 93 | 1011.2 |
| 20260510061514 | 67 | 60 | 0.0 | 0.0 | 0.00 | 1.20 | 0.00 | 93 | 1011.2 |
| 20260510060021 | 67 | 60 | 0.0 | 0.0 | 0.00 | 1.20 | 0.00 | 93 | 1011.3 |
| 20260510054617 | 67 | 60 | 0.0 | 0.0 | 0.00 | 1.20 | 0.00 | 93 | 1011.2 |
| 20260510053043 | 67 | 60 | 0.0 | 0.0 | 0.00 | 1.20 | 0.00 | 94 | 1011.2 |
| 20260510051515 | 68 | 60 | 0.0 | 0.0 | 0.00 | 1.20 | 0.00 | 94 | 1011.1 |
| 20260510050018 | 68 | 58 | 0.0 | 0.0 | 0.00 | 1.20 | 0.00 | 94 | 1011.3 |
| 20260510044518 | 67 | 54 | 0.0 | 0.0 | 0.00 | 1.20 | 1.20 | 93 | 1011.2 |
| 20260510043033 | 68 | 54 | 0.0 | 0.0 | 0.00 | 1.20 | 1.20 | 93 | 1011.2 |
| 20260510041604 | 68 | 54 | 0.0 | 0.0 | 0.00 | 1.20 | 1.20 | 92 | 1011.3 |
| 20260510040008 | 68 | 43 | 0.0 | 0.0 | 0.00 | 1.20 | 1.20 | 92 | 1011.3 |
| 20260510034504 | 68 | 28 | 0.0 | 0.0 | 0.00 | 1.20 | 1.20 | 91 | 1011.5 |
| 20260510033113 | 68 | 28 | 0.0 | 0.0 | 0.00 | 1.20 | 1.20 | 91 | 1011.6 |
| 20260510031604 | 69 | 28 | 0.0 | 0.0 | 0.00 | 1.20 | 1.20 | 90 | 1011.5 |
| 20260510030105 | 69 | 28 | 0.0 | 0.0 | 0.00 | 1.20 | 1.20 | 90 | 1011.3 |
| 20260510024614 | 70 | 27 | 0.0 | 0.0 | 0.00 | 1.20 | 1.20 | 89 | 1011.2 |
| 20260510023017 | 70 | 48 | 0.0 | 0.0 | 0.00 | 1.20 | 1.20 | 89 | 1010.9 |
| 20260510021608 | 70 | 44 | 0.0 | 0.0 | 0.00 | 1.20 | 1.20 | 88 | 1010.8 |
| 20260510020107 | 70 | 68 | 0.0 | 0.0 | 0.00 | 1.20 | 1.20 | 89 | 1010.4 |
| 20260510014516 | 70 | 332 | 0.0 | 0.0 | 0.00 | 1.20 | 1.20 | 89 | 1010.2 |
| 20260510013022 | 70 | 233 | 0.0 | 0.0 | 0.00 | 1.20 | 1.20 | 88 | 1009.9 |
| 20260510011604 | 70 | 135 | 0.0 | 0.0 | 0.00 | 1.20 | 1.20 | 86 | 1009.9 |
| 20260510010005 | 71 | 300 | 0.0 | 0.0 | 0.00 | 1.20 | 1.20 | 85 | 1010.2 |
| 20260510004506 | 72 | 63 | 0.0 | 1.0 | 0.00 | 1.20 | 1.20 | 84 | 1010.1 |
| 20260510003007 | 72 | 190 | 0.0 | 7.0 | 0.00 | 1.20 | 1.20 | 84 | 1009.8 |
| 20260510001522 | 72 | 273 | 0.0 | 2.0 | 0.00 | 1.20 | 1.20 | 84 | 1009.5 |
| 20260510000107 | 72 | 60 | 0.0 | 0.0 | 0.00 | 1.20 | 1.20 | 84 | 1009.5 |
| 20260509234606 | 73 | 283 | 0.0 | 6.0 | 0.00 | 1.20 | 1.20 | 85 | 1009.3 |
| 20260509233010 | 74 | 291 | 1.0 | 5.0 | 0.00 | 1.20 | 1.20 | 84 | 1009.3 |
| 20260509231518 | 77 | 255 | 1.0 | 8.0 | 0.00 | 1.20 | 1.20 | 80 | 1009.1 |
| 20260509230016 | 81 | 92 | 0.0 | 0.0 | 0.00 | 1.20 | 1.20 | 78 | 1008.7 |
| 20260509224619 | 82 | 56 | 0.0 | 0.0 | 0.00 | 1.20 | 1.20 | 77 | 1008.7 |
| 20260509223106 | 82 | 255 | 0.0 | 0.0 | 0.00 | 1.20 | 1.20 | 76 | 1008.3 |
| 20260509221522 | 81 | 61 | 0.0 | 0.0 | 0.00 | 1.20 | 1.20 | 76 | 1008.2 |
| 20260509220118 | 82 | 85 | 0.0 | 0.0 | 0.00 | 1.20 | 1.20 | 77 | 1008.1 |
| 20260509214632 | 81 | 4 | 0.0 | 0.0 | 0.00 | 1.20 | 1.20 | 75 | 1008.1 |
| 20260509213026 | 80 | 71 | 0.0 | 0.0 | 0.00 | 1.20 | 1.20 | 81 | 1008.4 |
| 20260509211620 | 79 | 75 | 0.0 | 0.0 | 0.00 | 1.20 | 1.20 | 80 | 1008.4 |
| 20260509210007 | 79 | 86 | 0.0 | 0.0 | 0.00 | 1.20 | 1.20 | 79 | 1008.7 |
| 20260509204512 | 80 | 70 | 0.0 | 0.0 | 0.00 | 1.20 | 1.20 | 78 | 1008.8 |
| 20260509203118 | 79 | 101 | 0.0 | 0.0 | 0.00 | 1.20 | 1.20 | 82 | 1009.0 |
| 20260509201516 | 79 | 114 | 0.0 | 0.0 | 0.00 | 1.20 | 1.20 | 81 | 1009.1 |
| 20260509200105 | 79 | 110 | 0.0 | 0.0 | 0.00 | 1.20 | 1.20 | 80 | 1009.2 |
| 20260509194514 | 78 | 71 | 0.0 | 0.0 | 0.00 | 1.20 | 1.20 | 84 | 1009.3 |
| 20260509193026 | 78 | 52 | 0.0 | 0.0 | 0.00 | 1.20 | 1.20 | 81 | 1009.4 |
| 20260509191506 | 78 | 354 | 0.0 | 0.0 | 0.00 | 1.20 | 1.20 | 83 | 1009.6 |
| 20260509190004 | 76 | 266 | 0.0 | 0.0 | 0.00 | 1.20 | 1.20 | 83 | 1009.8 |
| 20260509184616 | 75 | 96 | 0.0 | 0.0 | 0.00 | 1.20 | 1.20 | 84 | 1009.8 |
| 20260509183012 | 74 | 85 | 0.0 | 0.0 | 0.00 | 1.20 | 1.20 | 88 | 1010.3 |
| 20260509181621 | 74 | 68 | 0.0 | 0.0 | 0.00 | 1.20 | 1.20 | 87 | 1010.3 |
| 20260509180018 | 74 | 68 | 0.0 | 0.0 | 0.00 | 1.20 | 1.20 | 88 | 1010.3 |
| 20260509174506 | 74 | 68 | 0.0 | 0.0 | 0.00 | 1.20 | 1.20 | 88 | 1010.6 |
| 20260509173020 | 73 | 68 | 0.0 | 0.0 | 0.00 | 1.20 | 1.20 | 90 | 1010.7 |
| 20260509170023 | 70 | 58 | 0.0 | 0.0 | 0.00 | 1.20 | 1.20 | 95 | 1010.9 |
| 20260509164516 | 70 | 58 | 0.0 | 0.0 | 0.00 | 1.20 | 1.20 | 95 | 1010.9 |
| 20260509163116 | 69 | 58 | 0.0 | 0.0 | 0.00 | 1.20 | 1.20 | 95 | 1010.8 |
| 20260509161515 | 69 | 47 | 0.0 | 0.0 | 0.00 | 1.20 | 1.20 | 95 | 1010.8 |
| 20260509160015 | 69 | 93 | 0.0 | 0.0 | 0.00 | 1.20 | 1.20 | 96 | 1010.6 |
| 20260509154621 | 68 | 93 | 0.0 | 0.0 | 0.00 | 1.20 | 1.20 | 96 | 1010.5 |
| 20260509151505 | 68 | 93 | 0.0 | 0.0 | 0.00 | 1.20 | 1.20 | 96 | 1010.0 |
| 20260509150108 | 68 | 72 | 0.0 | 0.0 | 0.00 | 1.20 | 1.20 | 96 | 1010.3 |
| 20260509144512 | 68 | 72 | 0.0 | 0.0 | 0.00 | 1.20 | 1.20 | 96 | 1010.5 |
| 20260509143011 | 67 | 60 | 0.0 | 0.0 | 0.00 | 1.20 | 1.20 | 96 | 1010.5 |
| 20260509141504 | 67 | 60 | 0.0 | 0.0 | 0.00 | 1.20 | 1.20 | 96 | 1010.7 |
| 20260509140014 | 66 | 60 | 0.0 | 0.0 | 0.00 | 1.20 | 1.20 | 96 | 1010.7 |
| 20260509134519 | 66 | 60 | 0.0 | 0.0 | 0.00 | 1.20 | 1.20 | 96 | 1010.9 |
| 20260509133105 | 66 | 60 | 0.0 | 0.0 | 0.00 | 1.20 | 1.20 | 96 | 1010.7 |
| 20260509131511 | 66 | 69 | 0.0 | 0.0 | 0.00 | 1.20 | 1.20 | 96 | 1010.4 |
| 20260509130027 | 66 | 53 | 0.0 | 0.0 | 0.00 | 1.20 | 1.20 | 96 | 1010.4 |
| 20260509124520 | 65 | 4 | 0.0 | 0.0 | 0.00 | 1.20 | 1.20 | 96 | 1010.4 |
| 20260509123019 | 65 | 4 | 0.0 | 0.0 | 0.00 | 1.20 | 1.20 | 96 | 1010.1 |
| 20260509121525 | 65 | 4 | 0.0 | 0.0 | 0.00 | 1.20 | 1.20 | 96 | 1010.3 |
| 20260509120005 | 65 | 4 | 0.0 | 0.0 | 0.00 | 1.20 | 1.20 | 96 | 1010.2 |
| 20260509114515 | 65 | 4 | 0.0 | 0.0 | 0.00 | 1.20 | 1.20 | 96 | 1010.0 |
| 20260509113019 | 65 | 41 | 0.0 | 0.0 | 0.00 | 1.20 | 1.20 | 96 | 1010.1 |
| 20260509111513 | 65 | 41 | 0.0 | 0.0 | 0.00 | 1.20 | 1.20 | 95 | 1009.8 |
| 20260509110120 | 65 | 18 | 0.0 | 0.0 | 0.00 | 1.20 | 1.20 | 96 | 1009.5 |
| 20260509104509 | 64 | 18 | 0.0 | 0.0 | 0.00 | 1.20 | 1.20 | 96 | 1009.5 |
| 20260509103011 | 64 | 18 | 0.0 | 0.0 | 0.00 | 1.20 | 1.20 | 95 | 1009.3 |
| 20260509101619 | 64 | 18 | 0.0 | 0.0 | 0.00 | 1.20 | 1.20 | 95 | 1009.2 |
| 20260509100009 | 64 | 18 | 0.0 | 0.0 | 0.00 | 1.20 | 1.20 | 95 | 1009.3 |
| 20260509094515 | 64 | 18 | 0.0 | 0.0 | 0.00 | 1.20 | 1.20 | 95 | 1009.4 |